Погода в Семеновке

Россия / Тамбовская область     52°11′18″N   41°05′44″E
темп.,
°C
ветер,
м/с
пор.,
м/с
влажн.,
%
обл.,
%
осадки,
мм/ч
давл.,
гПа
погр.,
м
22 мая, вс
вс2200:00+9юв3774100 0.0 1004208
03:00+7в3683100 0.3 1002180
06:00+7в5990100 1.2 1000337
09:00+7в61295100 4.6 998514
12:00+8в71193100 6.3 9971015
15:00+8всв51093100 15.6 9971040
18:00+7всв3893100 5.8 998610
21:00+7св51091100 7.5 1000785
23 мая, пн
пн2300:00+4с38945 0.0 1001164
03:00+2с37925 0.0 1002127
06:00+3ссз37875 0.0 1004218
09:00+8ссз686448 0.0 10051448
12:00+8сз6757100 0.1 10051654
15:00+9сз5763100 0.1 10061320
18:00+9зсз366682 0.0 10061243
21:00+5зюз45835 0.0 100780
24 мая, вт
вт2400:00+4зюз49875 0.0 1007159
03:00+3зюз49922 0.0 1008163
06:00+5з49820 0.0 1008234
09:00+11з56620 0.0 1008685
12:00+14зсз674647 0.0 10082100
15:00+14зсз6744100 0.0 10081912
18:00+12з5861100 0.0 1009504
21:00+8зсз3989100 0.1 1011200
25 мая, ср
ср2500:00+7з2393100 0.1 101144
03:00+6сз2294100 0.6 101140
06:00+6сз3687100 0.3 1012568
09:00+7зсз348394 1.6 1013787
12:00+8зсз4574100 0.3 10131092
15:00+9ссз566997 0.4 1014962
18:00+10сз466535 0.0 10151255
21:00+5сз35835 0.0 101663
26 мая, чт
чт2600:00+3сз33895 0.0 101733
03:00+3сз229014 0.0 101817
06:00+5сз11810 0.0 101770
09:00+10ююз226020 0.0 1016763
12:00+14ююз445399 0.0 10151134
15:00+16ююз466185 0.0 10131371
18:00+13ююв4981100 0.0 1011258
21:00+13юз61286100 0.0 1009603